Wind_Speed
24 27 26 27 31 33 35 36 36 34 31 29 26 23 21 16 13 12 11 16 15 13 11 8 6 6 6 6 4 2 3 7 9 10 6 3 4 7 6 5 4 3 2
19 24 28 28 30 34 38 37 38 36 34 32 30 25 23 19 15 11 10 16 18 14 12 10 8 5 5 6 4 4 3 6 8 5 4 2 1 2 5 7 7 5 5
20 20 25 30 29 31 37 39 40 38 37 33 31 24 20 20 18 15 12 15 19 15 14 13 10 7 4 6 5 5 4 6 5 7 3 2 2 1 2 5 8 8 8
19 18 22 28 33 31 37 39 41 40 39 36 33 31 26 22 24 22 16 14 16 16 15 14 12 9 7 8 6 6 5 6 6 7 4 3 3 2 1 3 7 8 11
20 21 23 31 34 32 33 38 41 40 40 40 38 36 32 28 24 24 20 17 16 15 17 16 13 11 9 9 7 6 8 7 9 8 5 4 3 2 2 1 3 9 13
21 20 28 27 29 33 32 35 39 42 40 41 41 40 36 35 29 25 25 24 21 18 18 18 16 13 13 11 10 8 8 11 10 11 9 6 3 5 3 2 4 5 5
20 20 20 24 30 33 34 34 37 38 41 42 42 42 41 39 37 33 30 30 25 23 21 20 20 18 15 13 11 11 11 12 14 12 11 11 10 6 7 4 2 2 4
20 22 21 28 31 35 37 36 37 37 40 42 43 44 42 42 40 35 31 30 29 25 20 20 22 21 19 15 14 14 14 15 16 17 14 12 12 12 10 7 4 1 2
21 22 22 31 34 35 40 41 39 39 40 45 44 41 41 40 39 38 32 30 27 26 22 22 23 23 22 20 18 17 17 18 18 18 18 16 14 12 12 12 11 5 1
19 19 19 28 37 39 38 38 41 41 43 43 42 41 41 44 43 40 36 31 28 25 24 22 24 24 24 23 22 21 20 20 20 20 19 19 18 16 14 13 12 12 10
20 21 21 32 34 35 37 38 38 37 36 38 39 36 38 39 42 42 39 34 29 26 28 26 23 24 25 25 26 25 23 23 23 22 23 22 20 20 20 19 19 18 15
22 22 22 28 31 36 37 39 38 37 39 41 40 41 39 40 40 41 41 36 32 28 30 27 25 26 25 25 26 28 27 27 27 26 26 26 24 24 23 22 23 24 23
20 19 16 17 26 32 36 37 38 37 38 37 38 36 35 36 38 40 41 38 34 32 31 32 32 30 27 27 26 26 28 30 30 29 29 29 28 29 28 27 27 27 26
13 16 15 17 26 33 33 36 36 37 37 35 36 36 37 37 38 40 40 39 36 35 35 34 34 33 30 28 28 28 29 30 31 32 33 33 33 32 31 30 31 32 31
14 17 19 18 19 26 29 33 35 37 37 36 35 37 37 37 40 39 40 40 39 38 37 37 37 36 35 35 32 31 33 32 32 33 34 35 36 36 34 33 34 34 33
15 17 22 21 20 28 33 35 35 38 39 37 36 36 35 37 39 40 40 39 40 39 38 40 40 41 41 40 40 39 36 35 36 38 38 37 36 36 37 37 37 37 33
18 21 22 22 22 33 35 35 37 36 37 35 34 34 35 36 37 39 37 39 39 37 38 40 39 40 43 44 42 41 42 40 40 41 40 39 39 39 39 39 39 40 40
10 17 18 19 32 34 35 28 33 36 36 34 33 33 34 34 33 32 35 35 36 36 36 38 39 39 41 42 43 43 42 42 43 44 43 41 40 39 39 39 40 42 41
10 7 15 21 27 30 31 31 31 33 33 33 34 35 36 34 32 33 34 34 32 32 36 37 37 39 39 38 39 38 40 42 44 39 40 40 38 37 37 36 36 40 37
8 6 17 20 23 25 30 30 29 31 32 34 34 32 34 35 36 36 36 35 32 31 28 32 35 38 38 37 36 36 37 32 35 35 37 38 38 37 37 38 36 34 34
16 15 18 17 23 30 29 25 26 29 27 26 29 33 37 37 34 31 31 29 29 26 26 28 31 33 33 33 32 32 36 34 30 28 27 27 33 34 34 37 40 37 38
20 23 16 15 16 27 29 23 22 20 25 30 32 34 33 31 29 32 30 29 28 26 26 26 26 30 32 31 30 29 32 34 32 27 27 30 30 29 29 31 35 36 38
20 25 19 20 21 20 23 18 8 14 19 27 31 32 31 32 31 31 27 26 28 26 24 23 23 23 29 30 28 28 28 29 37 35 32 29 25 24 24 25 27 30 33
18 22 21 20 19 24 24 18 13 13 18 21 24 27 29 29 28 28 27 25 25 24 22 22 20 20 23 25 25 24 27 30 33 34 36 32 30 29 27 27 28 22 16
22 21 18 17 17 18 18 16 14 12 15 13 11 15 21 23 24 22 21 21 22 24 22 21 20 19 17 20 20 19 20 21 22 24 27 26 23 18 11 9 8 7 5
23 23 22 19 21 18 17 16 14 11 7 8 8 10 15 19 23 23 15 17 18 18 19 17 18 16 16 15 15 13 15 14 12 9 8 6 4 4 5 6 5 4 3
Wind_Direction
193 196 195 191 194 198 202 203 202 205 206 207 207 212 216 219 219 211 213 212 217 220 211 216 183 169 190 169 184 189 113 129 134 122 104 97 207 213 213 209 212 218 231
194 195 196 194 192 196 203 204 207 207 207 210 211 211 210 207 207 209 218 213 214 220 217 217 209 199 162 175 180 203 166 149 163 142 114 26 56 200 219 234 224 232 249
196 197 197 200 197 195 199 203 209 210 210 211 214 214 215 214 211 207 212 201 208 221 226 227 225 219 209 193 187 188 181 161 160 170 146 127 223 321 233 235 227 236 247
199 199 198 202 204 201 203 206 211 210 212 212 215 215 211 206 217 213 209 201 208 222 233 235 231 235 242 212 205 207 202 200 180 172 192 180 151 166 316 235 234 237 246
198 200 201 203 204 204 202 205 212 212 213 215 218 219 218 222 224 224 216 212 215 224 232 235 233 236 226 218 223 220 223 226 219 204 188 184 187 170 116 275 285 251 246
201 204 205 204 204 206 204 203 207 212 215 216 217 220 219 221 223 224 227 224 221 224 228 229 233 238 236 239 222 221 231 232 238 232 231 219 185 214 190 205 261 256 277
203 205 199 198 202 201 204 200 203 204 211 214 218 219 221 225 228 229 230 227 223 222 224 228 230 235 241 238 230 235 238 238 238 242 248 252 248 245 233 231 234 261 267
202 207 204 198 203 202 202 200 201 203 205 210 216 221 220 224 228 231 231 227 224 225 227 233 235 236 239 239 235 238 242 244 247 252 252 257 257 257 254 251 215 281 286
201 204 202 201 202 203 201 199 200 203 203 209 214 215 218 219 224 231 231 228 224 226 231 237 238 238 238 239 240 242 245 246 249 252 250 256 260 267 257 254 261 237 273
202 201 199 199 200 201 202 201 201 201 203 206 210 213 215 222 226 231 230 227 226 225 231 238 240 241 242 241 242 244 247 250 252 252 253 256 258 262 263 259 261 258 254
200 201 203 201 196 197 197 198 200 200 201 202 205 207 211 217 222 227 230 228 226 227 230 237 242 243 245 246 242 243 246 248 253 254 255 259 259 261 260 264 262 260 255
203 204 204 194 189 191 192 194 195 196 199 202 202 205 209 212 216 222 229 229 226 225 228 231 237 244 247 249 247 243 244 245 248 253 254 257 258 261 261 262 263 263 261
209 208 202 196 195 189 189 190 192 196 197 197 199 202 204 205 211 217 226 228 228 227 228 231 236 241 245 247 249 247 246 247 250 252 254 258 259 258 259 260 263 264 266
199 200 200 201 194 191 185 186 189 193 194 195 196 199 202 204 209 217 222 227 228 228 229 230 233 235 238 245 248 250 251 252 253 254 256 257 259 262 264 264 263 264 263
203 192 197 193 196 188 182 183 188 188 189 191 194 200 202 205 211 214 219 227 228 229 231 231 232 234 236 240 245 248 251 254 256 258 259 259 259 262 263 264 268 267 267
235 206 197 189 185 188 185 181 184 185 186 190 195 198 199 201 208 214 218 221 228 231 232 234 235 235 235 238 240 244 249 252 255 257 260 262 264 264 264 264 265 265 262
225 218 196 186 183 187 185 183 182 179 184 189 194 196 197 200 206 212 214 218 220 225 228 234 235 235 239 240 241 242 244 248 252 256 257 260 262 264 265 269 271 271 268
252 201 192 183 187 186 187 175 172 176 181 187 191 193 195 200 202 205 212 217 219 220 225 230 235 237 240 243 245 246 246 247 250 252 254 255 258 261 265 270 271 272 274
279 187 189 185 175 178 174 168 169 174 178 187 192 193 194 197 198 203 210 215 216 220 226 231 234 237 241 244 246 243 242 243 247 247 251 252 255 259 262 262 262 270 270
350 145 148 153 158 164 162 161 169 174 185 191 194 192 195 199 200 206 210 215 216 219 221 227 234 240 243 247 247 242 240 238 244 248 249 250 255 258 262 258 254 256 262
26 40 115 133 151 156 157 162 171 190 187 186 190 197 203 204 207 207 209 210 213 217 219 225 232 237 244 247 247 245 237 235 239 241 247 247 255 258 260 259 255 253 268
29 37 54 68 123 161 160 162 178 189 191 195 195 201 203 200 203 208 208 209 208 209 214 217 226 234 242 248 249 247 242 245 236 238 243 255 263 265 265 263 263 267 270
21 27 44 60 67 115 142 132 151 167 184 194 199 205 207 206 203 202 204 202 206 207 210 213 220 225 235 246 251 254 252 249 244 249 252 255 257 261 259 261 264 268 267
20 16 28 39 44 69 89 95 100 143 181 190 199 206 207 206 203 205 206 204 203 208 211 212 218 224 232 243 252 248 248 249 249 250 252 254 259 261 264 268 277 281 280
13 19 21 25 25 52 71 75 82 100 107 121 156 193 211 205 200 200 205 206 209 212 210 219 218 212 218 246 252 253 256 258 256 258 258 262 264 269 268 273 280 280 266
9 12 17 16 17 32 47 50 52 60 93 120 135 155 170 180 190 188 188 217 221 223 223 229 233 232 236 237 242 245 249 246 243 218 216 208 233 263 280 287 276 276 268
Height
780 788 793 797 802 806 809 813 817 822 828 832 837 841 843 846 848 850 852 855 858 861 863 865 866 867 868 869 870 871 872 873 874 876 878 879 879 880 880 881 882 883 883
777 782 787 792 796 799 804 810 813 818 823 829 833 837 841 845 848 849 851 853 856 859 861 864 865 867 867 869 870 871 872 873 875 876 878 880 881 879 879 880 881 882 883
772 776 781 785 792 794 798 804 809 814 820 825 831 836 840 844 846 848 850 852 855 857 860 863 865 866 868 869 870 871 872 873 875 876 877 881 881 879 879 879 880 881 882
764 770 775 781 784 788 794 799 805 810 815 821 827 831 835 839 842 846 848 851 853 856 858 861 863 865 866 868 869 871 872 874 875 876 876 876 877 879 880 879 879 880 881
754 760 764 770 777 786 789 795 800 806 811 815 821 826 831 835 839 843 846 849 851 854 856 859 862 864 866 867 869 870 871 873 873 874 875 876 877 878 879 880 878 878 879
746 752 758 767 773 780 784 790 794 799 805 810 815 821 825 830 835 838 842 845 848 851 853 857 860 863 865 866 867 869 870 871 872 873 874 876 877 877 878 879 878 878 877
739 744 750 758 765 771 777 782 788 793 798 804 809 814 820 824 829 833 837 840 844 846 849 853 857 860 862 864 866 867 867 868 870 872 874 875 876 877 877 877 878 878 876
730 735 742 749 756 762 768 773 779 785 791 797 802 807 814 819 823 828 832 835 838 842 847 850 853 857 859 861 863 865 865 866 868 870 872 873 874 875 876 876 876 877 876
719 723 730 738 746 753 757 763 771 777 783 788 796 801 807 812 817 822 828 831 834 839 843 847 849 853 856 858 860 862 862 864 865 867 869 871 873 874 874 875 875 876 877
709 715 720 726 733 740 750 759 763 768 774 781 788 794 800 805 810 817 822 827 831 836 840 842 845 848 852 855 857 858 860 861 862 864 866 867 869 871 872 873 873 873 873
698 703 707 714 722 733 741 748 757 762 770 775 781 789 793 799 804 809 816 822 827 831 834 838 841 844 847 849 852 854 856 857 858 860 862 863 865 867 868 869 869 869 870
684 689 694 703 711 719 729 736 746 753 760 766 773 780 787 792 798 803 808 816 821 825 829 833 836 839 842 844 846 849 851 852 854 855 857 858 861 861 863 864 864 864 865
678 681 691 698 702 709 718 727 736 744 752 759 766 774 780 785 791 797 802 808 815 819 823 827 830 833 836 839 841 843 845 847 848 851 852 853 855 856 857 859 859 859 859
676 678 684 689 692 700 708 717 727 736 745 753 760 766 772 777 784 790 795 801 807 812 816 819 822 826 830 833 835 837 839 841 842 844 845 847 848 848 850 851 852 852 853
670 672 675 679 687 695 702 711 719 728 737 745 752 758 764 771 776 783 787 793 799 803 807 812 815 819 823 826 829 831 832 834 836 837 838 839 841 842 843 845 843 844 845
661 660 661 667 677 686 691 698 709 718 728 737 743 750 757 764 768 774 779 785 789 794 799 803 807 810 813 817 820 824 825 827 829 830 831 832 833 834 835 836 837 838 838
653 648 650 656 664 673 682 690 699 711 721 729 737 744 750 756 760 767 772 777 781 786 791 795 799 801 804 807 811 815 818 820 821 821 823 824 825 826 827 828 828 828 829
637 632 639 645 654 663 674 687 696 704 713 721 729 736 743 749 755 761 765 770 775 778 782 787 790 793 795 798 802 806 810 811 811 812 814 816 816 817 819 821 819 817 818
638 629 634 640 650 659 670 680 691 698 707 713 720 726 733 741 748 753 757 763 768 772 775 780 783 784 787 791 794 799 801 802 802 804 805 807 809 811 813 813 812 809 809
633 628 634 642 651 660 668 677 685 692 698 703 711 721 728 733 737 743 748 754 760 763 770 773 774 776 779 782 785 789 793 795 795 796 796 799 801 803 805 804 804 801 801
639 636 635 642 651 658 667 676 683 685 692 703 710 715 721 725 731 738 744 748 753 758 763 766 768 770 772 774 776 780 783 785 786 788 789 790 791 792 793 794 794 793 793
652 650 649 651 654 659 665 673 679 685 692 698 704 709 715 721 727 732 736 741 747 752 756 759 761 762 764 765 768 771 774 776 779 780 781 781 782 784 786 787 787 787 787
667 665 663 664 663 664 667 674 680 684 689 695 699 705 710 715 719 724 729 735 740 744 747 750 752 754 756 757 760 763 766 769 771 772 774 775 777 778 778 779 779 779 779
682 679 674 672 674 673 674 678 682 683 687 690 695 699 703 708 713 718 723 727 731 735 738 740 743 747 749 751 754 756 758 761 763 766 767 769 771 772 772 772 772 771 772
691 689 687 685 685 685 683 683 684 684 685 688 692 696 701 705 709 714 719 722 725 727 729 733 738 743 743 744 749 750 752 754 756 759 760 762 763 765 765 767 767 767 768
700 695 692 692 692 691 689 687 686 686 687 690 693 695 697 699 703 708 713 716 719 722 728 731 734 735 738 743 744 744 747 750 752 754 756 758 760 761 761 762 765 765 765